Regional Weather Roundup
Issued by NWS

Home | Current Version | Previous Version | Graphics & Text | Print | Product List | Glossary On
Versions: 1 2 3 4 5 6 7 8 9 10 11 12 13 14 15 16 17 18 19 20 21 22 23 24 25 26 27 28 29 30 31 32 33 34 35 36 37 38 39 40 41 42 43 44 45 46 47 48 49 50
000
ASUS43 KMKX 241210
RWRWI

WISCONSIN REGIONAL WEATHER ROUNDUP
NATIONAL WEATHER SERVICE MILWAUKEE/SULLIVAN WI
700 AM CDT SUN MAY 24 2015

NOTE: "FAIR" INDICATES FEW OR NO CLOUDS BELOW 12,000 FEET WITH NO
SIGNIFICANT WEATHER AND/OR OBSTRUCTIONS TO VISIBILITY.

WIZ001-002-006>008-014>016-023>028-241300-
NORTHWEST WISCONSIN

CITY           SKY/WX    TMP DP  RH WIND       PRES   REMARKS
SUPERIOR ARPT  CLOUDY    51  48  89 CALM      30.11F
ASHLAND        PTSUNNY   55  49  80 CALM      30.13F
6HR MIN TEMP:  44; 6HR MAX TEMP:  55;

HAYWARD        CLOUDY    56  50  80 N6        30.12F
6HR MIN TEMP:  52; 6HR MAX TEMP:  56; 6HR PCP:  0.01;

SIREN          CLOUDY    55  51  85 CALM      30.10F
CUMBERLAND     CLOUDY    55  46  71 E6        30.10F
RICE LAKE      CLOUDY    59  47  64 E3        30.12F
CHETEK         CLOUDY    58  49  71 CALM      30.10F
LADYSMITH      PTSUNNY   58  45  61 E5        30.14F
EAU CLAIRE     CLOUDY    58  49  72 NE3       30.09F
6HR MIN TEMP:  55; 6HR MAX TEMP:  58;

MENOMONIE      CLOUDY    57  48  73 E5        30.09F
NEW RICHMOND   CLOUDY    58  46  66 E7        30.07F
OSCEOLA        CLOUDY    57  52  83 E3        30.10F
$$

WIZ003>005-009-010-017-018-241300-
NORTH CENTRAL WISCONSIN

CITY           SKY/WX    TMP DP  RH WIND       PRES   REMARKS
MANITOWISH WTR CLOUDY    55  53  93 CALM      30.16S
ARBOR VITAE    CLOUDY    57  51  82 CALM      30.16F
WOODRUFF       CLOUDY    57  51  82 CALM      30.16F
RHINELANDER    CLOUDY    58  49  72 CALM      30.16F
6HR MIN TEMP:  52; 6HR MAX TEMP:  58;

EAGLE RIVER    CLOUDY    55  48  77 CALM      30.16F
LAND O LAKES   CLOUDY    55  49  81 CALM      30.17F
PHILLIPS       CLOUDY    55  47  75 CALM      30.14F
TOMAHAWK       PTSUNNY   49  47  95 CALM      30.16F
MEDFORD        CLOUDY    53  47  81 E3        30.14F
MERRILL        CLOUDY    51  50  96 CALM      30.17S
$$

WIZ029-030-035-036-043>047-241300-
CENTRAL WISCONSIN

CITY           SKY/WX    TMP DP  RH WIND       PRES   REMARKS
WAUSAU         CLOUDY    56  49  77 CALM      30.13F
6HR MIN TEMP:  53; 6HR MAX TEMP:  60; 6HR PCP: TRACE;

MOSINEE        SUNNY     55  46  71 E5        30.15F
MARSHFIELD     CLOUDY    58  48  69 E5        30.14S
6HR MIN TEMP:  55; 6HR MAX TEMP:  62;

STEVENS POINT  CLOUDY    52  48  86 CALM      30.15S
WAUPACA        CLOUDY    55  51  86 CALM      30.16R
WAUTOMA        NOT AVBL
WISC RAPIDS    CLOUDY    59  46  62 CALM      30.14S
6HR MIN TEMP:  51; 6HR MAX TEMP:  60; 6HR PCP: TRACE;

CAMP DOUGLAS   NOT AVBL
$$

WIZ011>013-019>022-031-037>040-048>050-241300-
NORTHEAST WISCONSIN

CITY           SKY/WX    TMP DP  RH WIND       PRES   REMARKS
ANTIGO         PTSUNNY   53  49  85 CALM      30.17S
SHAWANO        PTSUNNY   57  51  79 CALM      30.16S
OCONTO         PTSUNNY   54  49  83 CALM      30.15S
STURGEON BAY   PTSUNNY   59  45  58 CALM      30.18F
6HR MIN TEMP:  57; 6HR MAX TEMP:  61;

GREEN BAY      CLOUDY    58  48  69 CALM      30.16S
6HR MIN TEMP:  54; 6HR MAX TEMP:  62;

MANITOWOC      NOT AVBL
APPLETON       PTSUNNY   59  48  67 VRB5      30.16S
CLINTONVILLE   CLOUDY    54  50  87 CALM      30.15S
OSHKOSH        CLOUDY    59  48  67 S7        30.15S
6HR MIN TEMP:  49; 6HR MAX TEMP:  59;

$$

WIZ032>034-041-042-053>061-241300-
SOUTHWEST WISCONSIN

CITY           SKY/WX    TMP DP  RH WIND       PRES   REMARKS
LA CROSSE      CLOUDY    59  50  72 SE6       30.09S
6HR MIN TEMP:  57; 6HR MAX TEMP:  61;

SPARTA         CLOUDY    51  49  92 CALM      30.11F
VIROQUA        CLOUDY    59  48  66 SE7       30.11F
BOSCOBEL       CLOUDY    57  51  80 CALM      30.12F
6HR MIN TEMP:  51; 6HR MAX TEMP:  58;

PRAIRIE DU CHI CLOUDY    60  51  73 CALM      30.10F
PLATTEVILLE    CLOUDY    61  53  76 SE6       30.12F
$$

WIZ056-057-062-063-064-067-068-241300-
SOUTH CENTRAL WISCONSIN

CITY           SKY/WX    TMP DP  RH WIND       PRES   REMARKS
REEDSBURG      CLOUDY    52  50  93 CALM      30.14S
BARABOO/DELLS  CLOUDY    55  49  79 SE3       30.14S
LONE ROCK      NOT AVBL
MINERAL POINT  LGT RAIN  63  50  63 SE6       30.14R
MADISON        CLOUDY    60  52  74 S3        30.15S
6HR MIN TEMP:  52; 6HR MAX TEMP:  60;

MIDDLETON      CLOUDY    58  52  80 CALM      30.15F
WATERTOWN      CLOUDY    58  52  81 CALM      30.16S
MONROE         CLOUDY    63  52  67 S8        30.15S
JANESVILLE     PTSUNNY   63  50  63 CALM      30.16R
$$

WIZ051-052-058>065-066-070>072-241300-
SOUTHEAST WISCONSIN

CITY           SKY/WX    TMP DP  RH WIND       PRES   REMARKS
MILWAUKEE      CLOUDY    60  48  64 SE3       30.18S
6HR MIN TEMP:  55; 6HR MAX TEMP:  60;

WAUKESHA       MOSUNNY   55  48  76 S6        30.19S
MILWAUKEE/TIMM PTSUNNY   55  48  76 CALM      30.18S
RACINE         CLOUDY    59  47  64 CALM      30.20S
6HR MIN TEMP:  53; 6HR MAX TEMP:  61;

BURLINGTON     CLOUDY    52  48  87 CALM      30.17S
KENOSHA        CLOUDY    60  53  77 CALM      30.18S
6HR MIN TEMP:  51; 6HR MAX TEMP:  60;

FOND DU LAC    CLOUDY    61  45  55 S5        30.16S
6HR MIN TEMP:  53; 6HR MAX TEMP:  61;

SHEBOYGAN      PTSUNNY   54  46  74 CALM      30.16F
6HR MIN TEMP:  44; 6HR MAX TEMP:  54;

WEST BEND      CLOUDY    52  46  82 CALM      30.17S
JUNEAU         PTSUNNY   56  47  70 SE5       30.18R
$$

LSZ147-162-241300-
LAKE SUPERIOR

STATION/POSITION TIME  TEMP    WIND        PRES    WAVE
                       AIR SEA DIR/SP/G            HT/PER
                 (UTC) (F)     (DEG/KT/KT) (MB)    (FT/S)
W MID LAKE BUOY  1050   42 36  220/  8/ 10   N/A     1/ 4
DEVILS ISLAND    1100   57     220/  8/ 10   N/A
PORT WING        1100   51     130/  2/  4   N/A
SAXON HARBOR     1100   54     200/  5/  6   N/A
$$

LMZ867-665-643>646-241300-
LAKE MICHIGAN

STATION/POSITION TIME  TEMP    WIND        PRES    WAVE
                       AIR SEA DIR/SP/G            HT/PER
                 (UTC) (F)     (DEG/KT/KT) (MB)    (FT/S)
CHAMBERS ISLAND  1100   60     180/  4/  8   N/A
N MID LAKE BUOY  1050   41 36  180/  8/  8   N/A     1
SISTER BAY       1117   64     120/  5/  5   N/A
KEWAUNEE LAKESHO 1100   50     170/  2/  4   N/A
SHEBOYGAN LAKESH 1100   49     170/  8/  8   N/A
PORT WASHINGTON  1040   49      40/  2/  2   N/A
ATWATER BUOY     1100   47 46  350/  2/  4   N/A
MILWAUKEE LAKESH 1100   49      40/  3/  3   N/A
S MID LAKE BUOY  1050   45 38  170/  8/ 10   N/A     0
KENOSHA   LAKESH 1100   53     180/  6/  7   N/A
$$

TC  - TEMPERATURE IN CELSIUS
VSB - VISIBILITY IN STATUTE MILES
WCI - WIND CHILL INDEX
HX  - HEAT INDEX



USA.gov is the U.S. government's official web portal to all federal, state and local government web resources and services.